Viroqua, WI

10:19 AM CDT on April 30, 2017 (GMT -0500)
Viroqua

Weather History for KY51 - June, 2013

Change the Weather History Date:

Sunday, June 30, 2013

  Actual Average (KCMY) Record (KCMY)
Temperature  
Mean Temperature 66 °F -  
Max Temperature 77 °F 81 °F 98 °F (1963)
Min Temperature 55 °F 58 °F 40 °F (2010)
Growing Degree Days 16 (Base 50)    
Moisture  
Dew Point 51 °F    
Average Humidity 59    
Maximum Humidity 83    
Minimum Humidity 32    
Precipitation  
Precipitation 0.00 in - - ()
Sea Level Pressure  
Sea Level Pressure 30.02 in    
Wind  
Wind Speed 9 mph (NNE)    
Max Wind Speed 15 mph    
Max Gust Speed 21 mph    
Visibility 10 miles    
Events      
Averages and records for this station are not official NWS values.
T = Trace of Precipitation, MM = Missing Value Source: NWS Daily Summary

Daily Weather History Graph

Daily Weather History Graph

Search for Another Location

Airport or City:

Trip Planner

Search our weather history database for the weather conditions in past years. The results will help you decide how hot, cold, wet, or windy it might be!

Date:

Astronomy

Jun. 30, 2013 Rise Set
Actual Time 5:25 AM CDT 8:48 PM CDT
Civil Twilight 4:50 AM CDT 9:24 PM CDT
Nautical Twilight 4:03 AM CDT 10:10 PM CDT
Astronomical Twilight 3:05 AM CDT 11:09 PM CDT
Moon 12:33 AM CDT 1:55 PM CDT
Length of Visible Light 16h 34m
Length of Day
15h 22m
Last Quarter, 45% of the Moon is Illuminated
Jun 30
Last Quarter
Jul 8
New
Jul 15
First Quarter
Jul 22
Full
Jul 29
Last Quarter

Hourly Weather History & Observations

Time (CDT) Temp. Dew Point Humidity Pressure Visibility Wind Dir Wind Speed Gust Speed Precip Events Conditions
12:15 AM 61.0 °F 55.4 °F 82% 29.92 in 10.0 mi North 9.2 mph - N/A   Mostly Cloudy
12:35 AM 60.8 °F 54.7 °F 80% 29.92 in 10.0 mi North 12.7 mph 16.1 mph N/A   Mostly Cloudy
12:55 AM 61.3 °F 52.5 °F 73% 29.93 in 10.0 mi North 12.7 mph - N/A   Overcast
1:15 AM 61.0 °F 52.0 °F 72% 29.93 in 10.0 mi NNE 10.4 mph - N/A   Overcast
1:35 AM 60.8 °F 52.0 °F 73% 29.93 in 10.0 mi NNE 9.2 mph - N/A   Overcast
1:55 AM 60.8 °F 51.3 °F 71% 29.93 in 10.0 mi NNE 10.4 mph - N/A   Overcast
2:15 AM 60.1 °F 50.7 °F 71% 29.93 in 10.0 mi NNE 9.2 mph - N/A   Overcast
2:35 AM 59.0 °F 50.9 °F 74% 29.93 in 10.0 mi NNE 8.1 mph - N/A   Mostly Cloudy
2:55 AM 59.0 °F 51.1 °F 75% 29.93 in 10.0 mi NNE 5.8 mph - N/A   Mostly Cloudy
3:15 AM 58.5 °F 51.1 °F 76% 29.94 in 10.0 mi NNE 8.1 mph - N/A   Mostly Cloudy
3:35 AM 57.6 °F 50.9 °F 78% 29.94 in 10.0 mi NNE 5.8 mph - N/A   Scattered Clouds
3:55 AM 56.8 °F 50.7 °F 80% 29.95 in 10.0 mi North 5.8 mph - N/A   Scattered Clouds
4:15 AM 56.5 °F 50.4 °F 80% 29.95 in 10.0 mi NNE 4.6 mph - N/A   Scattered Clouds
4:35 AM 55.9 °F 50.4 °F 82% 29.95 in 10.0 mi North 4.6 mph - N/A   Scattered Clouds
4:55 AM 55.6 °F 50.0 °F 81% 29.96 in 10.0 mi North 4.6 mph - N/A   Scattered Clouds
5:15 AM 55.2 °F 50.2 °F 83% 29.96 in 10.0 mi North 5.8 mph - N/A   Scattered Clouds
5:35 AM 55.8 °F 50.0 °F 81% 29.97 in 10.0 mi North 5.8 mph - N/A   Mostly Cloudy
5:55 AM 55.6 °F 49.8 °F 81% 29.98 in 10.0 mi North 5.8 mph - N/A   Mostly Cloudy
6:15 AM 56.5 °F 49.6 °F 78% 29.98 in 10.0 mi North 8.1 mph - N/A   Scattered Clouds
6:35 AM 56.5 °F 49.3 °F 77% 30.00 in 10.0 mi North 6.9 mph - N/A   Clear
6:55 AM 56.8 °F 49.5 °F 76% 30.00 in 10.0 mi North 8.1 mph - N/A   Clear
7:15 AM 58.1 °F 49.8 °F 74% 30.01 in 10.0 mi North 6.9 mph - N/A   Clear
7:35 AM 58.6 °F 49.3 °F 71% 30.01 in 10.0 mi North 9.2 mph - N/A   Clear
7:55 AM 59.4 °F 49.5 °F 70% 30.01 in 10.0 mi North 9.2 mph - N/A   Clear
8:15 AM 60.8 °F 49.6 °F 67% 30.02 in 10.0 mi NNE 11.5 mph - N/A   Clear
8:35 AM 62.1 °F 49.8 °F 64% 30.02 in 10.0 mi North 10.4 mph - N/A   Clear
8:55 AM 63.5 °F 49.8 °F 61% 30.02 in 10.0 mi North 11.5 mph - N/A   Clear
9:15 AM 64.6 °F 51.3 °F 62% 30.03 in 10.0 mi North 11.5 mph - N/A   Clear
9:35 AM 64.8 °F 51.1 °F 61% 30.03 in 10.0 mi North 9.2 mph - N/A   Clear
9:55 AM 64.8 °F 51.3 °F 62% 30.03 in 10.0 mi North 10.4 mph - N/A   Clear
10:15 AM 65.7 °F 51.4 °F 60% 30.03 in 10.0 mi North 9.2 mph - N/A   Clear
10:35 AM 67.1 °F 52.9 °F 60% 30.03 in 10.0 mi North 10.4 mph - N/A   Clear
10:55 AM 67.6 °F 53.2 °F 60% 30.03 in 10.0 mi NNW 10.4 mph - N/A   Clear
11:15 AM 68.9 °F 53.2 °F 57% 30.04 in 10.0 mi North 10.4 mph - N/A   Clear
11:35 AM 69.8 °F 51.8 °F 53% 30.04 in 10.0 mi NNE 11.5 mph - N/A   Clear
11:55 AM 70.2 °F 51.6 °F 52% 30.04 in 10.0 mi NNE 11.5 mph - N/A   Clear
12:15 PM 70.9 °F 52.5 °F 52% 30.04 in 10.0 mi North 12.7 mph 17.3 mph N/A   Clear
12:35 PM 71.8 °F 53.6 °F 53% 30.04 in 10.0 mi North 13.8 mph 19.6 mph N/A   Clear
12:55 PM 72.1 °F 52.5 °F 50% 30.05 in 10.0 mi North 12.7 mph - N/A   Clear
1:15 PM 72.5 °F 52.7 °F 50% 30.05 in 10.0 mi North 13.8 mph 18.4 mph N/A   Clear
1:35 PM 73.4 °F 53.8 °F 50% 30.05 in 10.0 mi NNE 15.0 mph 18.4 mph N/A   Clear
1:55 PM 73.9 °F 54.0 °F 50% 30.05 in 10.0 mi North 10.4 mph - N/A   Clear
2:15 PM 74.7 °F 53.1 °F 47% 30.05 in 10.0 mi North 12.7 mph 18.4 mph N/A   Clear
2:35 PM 75.2 °F 51.6 °F 44% 30.05 in 10.0 mi North 12.7 mph 19.6 mph N/A   Clear
2:55 PM 75.2 °F 50.2 °F 41% 30.04 in 10.0 mi NNE 10.4 mph 19.6 mph N/A   Clear
3:15 PM 75.6 °F 49.5 °F 40% 30.04 in 10.0 mi North 13.8 mph - N/A   Clear
3:35 PM 76.3 °F 50.9 °F 41% 30.05 in 10.0 mi NNE 13.8 mph 17.3 mph N/A   Clear
3:55 PM 76.3 °F 48.9 °F 38% 30.05 in 10.0 mi NNE 10.4 mph - N/A   Clear
4:15 PM 76.3 °F 45.7 °F 34% 30.05 in 10.0 mi North 12.7 mph 20.7 mph N/A   Clear
4:35 PM 76.5 °F 46.0 °F 34% 30.05 in 10.0 mi North 13.8 mph - N/A   Clear
4:55 PM 76.3 °F 44.4 °F 32% 30.05 in 10.0 mi North 13.8 mph 18.4 mph N/A   Clear
5:15 PM 76.1 °F 45.1 °F 33% 30.05 in 10.0 mi NE 11.5 mph - N/A   Clear
5:35 PM 75.4 °F 43.7 °F 32% 30.05 in 10.0 mi North 11.5 mph 17.3 mph N/A   Clear
5:55 PM 74.5 °F 45.3 °F 35% 30.05 in 10.0 mi North 10.4 mph 17.3 mph N/A   Clear
6:15 PM 73.0 °F 47.3 °F 40% 30.06 in 10.0 mi North 9.2 mph - N/A   Clear
6:35 PM 74.1 °F 48.0 °F 40% 30.06 in 10.0 mi NNE 5.8 mph - N/A   Clear
6:55 PM 74.7 °F 48.0 °F 39% 30.06 in 10.0 mi NNE 5.8 mph - N/A   Clear
7:15 PM 74.5 °F 49.1 °F 41% 30.06 in 10.0 mi NNE 5.8 mph - N/A   Clear
7:35 PM 73.0 °F 50.4 °F 45% 30.06 in 10.0 mi NNE 4.6 mph - N/A   Clear
7:55 PM 73.2 °F 51.1 °F 46% 30.06 in 10.0 mi NNE 3.5 mph - N/A   Clear
8:15 PM 71.8 °F 52.2 °F 50% 30.06 in 10.0 mi Calm Calm - N/A   Clear
8:35 PM 70.3 °F 51.6 °F 51% 30.06 in 10.0 mi North 3.5 mph - N/A   Clear
9:15 PM 68.0 °F 51.3 °F 55% 30.07 in 10.0 mi Calm Calm - N/A   Clear
9:35 PM 67.5 °F 52.0 °F 58% 30.07 in 10.0 mi Calm Calm - N/A   Clear
9:55 PM 65.5 °F 52.2 °F 62% 30.08 in 10.0 mi Calm Calm - N/A   Clear
10:15 PM 65.5 °F 51.1 °F 60% 30.08 in 10.0 mi North 3.5 mph - N/A   Clear
10:35 PM 64.4 °F 51.3 °F 62% 30.08 in 10.0 mi North 3.5 mph - N/A   Clear
10:55 PM 65.5 °F 50.2 °F 58% 30.08 in 10.0 mi Calm Calm - N/A   Clear
11:15 PM 65.3 °F 50.0 °F 58% 30.09 in 10.0 mi Calm Calm - N/A   Clear
11:35 PM 65.5 °F 50.0 °F 57% 30.09 in 10.0 mi NNE 3.5 mph - N/A   Clear
11:55 PM 65.7 °F 49.5 °F 56% 30.09 in 10.0 mi NNE 3.5 mph - N/A   Clear